Regional Weather Roundup
Issued by NWS New Orleans/Baton Rouge, LA

Home | Current Version | Previous Version | Graphics & Text | Print | Product List | Glossary On
Versions: 1 2 3 4 5 6 7 8 9 10 11 12 13 14 15 16 17 18 19 20 21 22 23 24 25 26 27 28 29 30 31 32 33 34 35 36 37 38 39 40 41 42 43 44 45 46 47 48 49 50
190
ASUS44 KLIX 280601
RWRLIX
NEW ORLEANS REGIONAL WEATHER ROUNDUP
NATIONAL WEATHER SERVICE NEW ORLEANS LA
100 AM CDT MON JUL 28 2014

NOTE: "FAIR" INDICATES FEW OR NO CLOUDS BELOW 12,000 FEET WITH NO
      SIGNIFICANT WEATHER AND/OR OBSTRUCTIONS TO VISIBILITY.
      SKY/WX - SKY CONDITION AND SIGNIFICANT WEATHER.
      TMP - AIR TEMPERATURE.     DP    - DEWPOINT TEMPERATURE.
      RH  - RELATIVE HUMIDITY.   PRES  - PRESSURE.
      HI  - HEAT INDEX.          WCI   - WIND CHILL INDEX.

*  THESE STATIONS ARE NOT NWS OR FAA STATIONS AND ARE NOT UNDER
   NWS QUALITY CONTROL.

LAZ038-040-048-061>063-065>067-069-280700-
SOUTHEAST LOUISIANA

CITY           SKY/WX    TMP DP  RH WIND       PRES   REMARKS
N.O. AUDUBON   NOT AVBL
N.O. INTL ARPT PTCLDY    81  77  88 SW9       30.06F
6HR MIN TEMP:  81; 6HR MAX TEMP:  87;

N.O. LAKEFRONT PTCLDY    84  77  79 SW12      30.06F
6HR MIN TEMP:  84; 6HR MAX TEMP:  88;

N.O. DOWNTOWN* MOCLDY    82  73  74 SW3       30.07F
6HR MIN TEMP:  82; 6HR MAX TEMP:  90;

SLIDELL        CLEAR     83  77  82 VRB3      30.04F
6HR MIN TEMP:  83; 6HR MAX TEMP:  90;

BATON ROUGE    PTCLDY    80  76  87 SW8       30.05F
6HR MIN TEMP:  80; 6HR MAX TEMP:  89;

BOOTHVILLE     CLEAR     83  76  79 W9        30.07F
6HR MIN TEMP:  83; 6HR MAX TEMP:  85;

BELLE CHASSE   PTCLDY    82  75  79 W5        30.05F
6HR MIN TEMP:  81; 6HR MAX TEMP:  87;

BOGALUSA*        N/A     81  75  82 W5        30.05F
6HR MIN TEMP:  81; 6HR MAX TEMP:  91;

GALLIANO*      NOT AVBL
NEW ROADS*       N/A     79  76  90 SW5       30.05F
6HR MIN TEMP:  78; 6HR MAX TEMP:  90;

GONZALES*        N/A     80  79  98 CALM      30.06S
6HR MIN TEMP:  80; 6HR MAX TEMP:  86;

HAMMOND*       PTCLDY    82  75  78 W6        30.06F
HOUMA*         CLEAR     80  74  82 CALM      30.07F
6HR MIN TEMP:  80; 6HR MAX TEMP:  88;

PORT FOURCHON* PTCLDY    84  75  74 W12       30.09S

$$

MSZ070-080>082-280700-
SOUTHERN MISSISSIPPI

CITY           SKY/WX    TMP DP  RH WIND       PRES   REMARKS
MCCOMB         CLEAR     79  76  90 SW5       30.05F
6HR MIN TEMP:  78; 6HR MAX TEMP:  89;

GULFPORT       CLEAR     85  76  74 W6        30.03F
6HR MIN TEMP:  85; 6HR MAX TEMP:  92;

BILOXI         CLEAR     83  77  80 VRB7      30.03F
6HR MIN TEMP:  83; 6HR MAX TEMP:  86;

PASCAGOULA     CLEAR     81  79  94 SW3       30.03F
6HR MIN TEMP:  81; 6HR MAX TEMP:  86;


$$

COASTAL OBSERVATIONS
LAKE AND NEARSHORE STATIONS

STATION/POSITION TIME  TEMP    WIND        PRES    WAVE
                       AIR SEA DIR/SP/G            HT/PER
                 (UTC) (F)     (DEG/KT/KT) (MB)    (FT/S)
PASCAGOULA       0518   85     250/ 14/ 18 1016.7
WAVELAND YACHT   0518   83     270/  7/  9 1017.0
GRAND ISLE       0518   84 88  260/  6/ 10 1019.2
SOUTHWEST PASS   0518   85 84  260/ 14/ 16 1018.9
NEW CANAL        0518   84 85  240/  6/  9 1018.7
SHELL BEACH      0518   82 83  250/  7/  9 1018.0

OFFSHORE STATIONS

STATION/POSITION TIME  TEMP    WIND        PRES    WAVE
                       AIR SEA DIR/SP/G            HT/PER
                 (UTC) (F)     (DEG/KT/KT) (MB)    (FT/S)
64 S DAUPHIN ISL 0507   85 85  260/ 17/ 19 1017.8

$$




USA.gov is the U.S. government's official web portal to all federal, state and local government web resources and services.